METEOR 2-11 DEB, 40704

Orbit data source: Space-Track

METEOR 2-11 DEB, 40704 is space debris in LEO originally from a launch on Thu, 05 Jul 1984 UTC launched from the Plesetsk Missile And Space Complex (PKMTR). Debris objects in space refer to the collection of defunct objects orbiting the Earth. Examples of debris include non-operational satellites, rocket bodies, and fragments generated from explosions, collisions, or faulty payload assembly.

Loading next visibility...
Identifier
40704, 1984-072F
Orbit
LEO
Country
Flag of CISCIS
Related business
Manufacturer
Unknown
Mission
Spacecraft
Bus & Motor
Unknown
Mass
Unknown
Launch date (UTC)
1984-07-05 (42 years ago)
Launch vehicle
Unknown
Launch site
Plesetsk Missile And Space Complex (PKMTR)
Object type
Payload
Rocket body
Debris
Shape & HBR
Unknown shape, 0.1 m
Radar Cross Section
Small (<0.1 m²)

Expand to show TLE details & history
Last TLE update: 2 weeks ago

TLE from 2 weeks ago
0 METEOR 2-11 DEB
1 40704U 84072F   26119.54347174  .00000511  00000-0  34241-3 0  9994
2 40704  82.5170  45.2815 0028576 104.6808 255.7531 13.98941650560588
Epoch: 2026-04-29T13:02Z
TLE epoch observation values (Epoch: 2026-04-29T13:02:35.958Z)
Latitude
-0.00002°
Longitude
-7.87125°
Altitude
905.558 km
Speed
7.397 km/s
True Right ascension
03h 01m 07s
True Declination
0° 00' 00"
Sunlit
Object was in daylight at epoch
Visualization orbit readout
Latitude
Unknown
Longitude
Unknown
Altitude
Unknown
Speed
Unknown
Apparent Right ascension
Unknown
Apparent Declination
Unknown
Sunlit
N/A
Visualization observer readout
Local Sidereal Time
01:35:34
Azimuth
Unknown
Elevation
Unknown
Doppler factor
Unknown
Orbital elements
Apogee altitude
915.378 km
Perigee altitude
873.812 km
Semi-major axis
7,272.732 km
Eccentricity
0.00286
Inclination
82.517°
RAAN
45.2815°
Arg. of periapsis
104.6808°
True anomaly
255.43599°
Mean anomaly
255.7531°
Eccentric anomaly
255.59452°
Mean motion
3.49943 °/min
Orbital period
102.87 mins
BSTAR
0.00034241
Loading maneuver chart data...
Computing Atmospheric mass density...
Loading historical data...
Loading historical data...
Loading historical data...
Loading historical data...
Loading historical data...
Loading historical data...
Loading historical data...

Documentation

Showing up to 5 results
|